SR5NLK-1 Weather Reports


time (UTC)temp
C
wind
direction
speed
KPH
gust
KPH
rain 1hr
cm
rain 24hr
cm
rain mn
cm
humidity
%
barometer
mb
20260906061935 15 292 20.9 33.8 0.00 0.00 0.00 74 1028.0
20260906061435 15 270 19.3 22.5 0.00 0.00 0.00 76 1021.7
20260906061234 15 225 12.9 24.1 0.00 0.00 0.00 76 1031.2
20260906060935 15 270 12.9 30.6 0.00 0.00 0.00 75 1046.9
20260906060435 15 247 17.7 35.4 0.00 0.00 0.00 75 1013.6
20260906055935 14 270 19.3 45.1 0.00 0.00 0.00 75 1034.3
20260906055435 14 270 37.0 41.8 0.00 0.00 0.00 76 1034.3
20260906054935 14 315 9.7 45.1 0.00 0.00 0.00 76 1037.5
20260906054435 14 270 24.1 30.6 0.00 0.00 0.00 77 1018.5
20260906053934 14 247 30.6 33.8 0.00 0.00 0.00 77 1032.3
20260906053435 14 270 32.2 32.2 0.00 0.00 0.00 77 1032.4
20260906052935 14 247 17.7 37.0 0.00 0.00 0.00 77 1009.0
20260906052435 14 270 16.1 32.2 0.00 0.00 0.00 77 1015.3
20260906051935 14 270 25.7 30.6 0.00 0.00 0.00 78 1046.9
20260906051435 14 270 29.0 33.8 0.00 0.00 0.00 78 1040.6
20260906050935 14 270 33.8 41.8 0.00 0.00 0.00 78 1031.2
20260906050634 13 225 17.7 33.8 0.00 0.00 0.00 78 1060.6
20260906050435 14 270 6.4 40.2 0.00 0.00 0.00 78 1028.0
20260906045935 14 225 27.4 30.6 0.00 0.00 0.00 78 1040.6
20260906045435 14 270 29.0 40.2 0.00 0.00 0.00 79 1031.1
20260906044935 14 247 16.1 29.0 0.00 0.00 0.00 79 1037.3
20260906044435 13 270 20.9 32.2 0.00 0.00 0.00 79 1037.3
20260906043935 13 270 24.1 29.0 0.00 0.00 0.00 79 1032.9
20260906043435 13 270 27.4 41.8 0.00 0.00 0.00 79 1012.2
20260906043334 13 247 20.9 41.8 0.00 0.00 0.00 79 1038.0
20260906042935 13 247 8.0 30.6 0.00 0.00 0.00 79 1021.7
20260906042435 13 247 9.7 27.4 0.00 0.00 0.00 79 1037.4
20260906041935 13 90 8.0 27.4 0.00 0.00 0.00 80 1045.5
20260906041435 13 270 16.1 27.4 0.00 0.00 0.00 80 1040.6
20260906040935 13 225 9.7 33.8 0.00 0.00 0.00 80 1075.5
20260906040435 13 270 22.5 30.6 0.00 0.00 0.00 80 1031.2
20260906040034 13 270 17.7 33.8 0.00 0.00 0.00 80 991.6
20260906035935 13 270 27.4 33.8 0.00 0.00 0.00 80 1037.5
20260906035435 13 270 25.7 30.6 0.00 0.00 0.00 80 1070.9
20260906034935 13 247 19.3 27.4 0.00 0.00 0.00 80 1050.3
20260906034435 13 270 22.5 43.5 0.00 0.00 0.00 80 1011.4
20260906033935 13 292 29.0 37.0 0.00 0.00 0.00 81 1064.4
20260906033435 13 292 9.7 32.2 0.00 0.00 0.00 81 1042.1
20260906032935 13 270 17.7 27.4 0.00 0.00 0.00 81 1002.4
20260906032734 13 270 12.9 27.4 0.00 0.00 0.00 81 1053.4
20260906032435 13 270 16.1 38.6 0.00 0.00 0.00 81 1057.2
20260906031935 13 270 24.1 40.2 0.00 0.00 0.00 81 1040.8
20260906031435 13 270 16.1 30.6 0.00 0.00 0.00 81 1045.7
20260906030935 13 247 9.7 29.0 0.00 0.00 0.00 81 1060.4
20260906030435 13 270 19.3 27.4 0.00 0.00 0.00 81 1061.3
20260906025935 13 270 16.1 27.4 0.00 0.05 0.00 81 1046.4
20260906025434 13 270 17.7 24.1 0.00 0.05 0.00 81 1055.6
20260906024935 13 270 12.9 29.0 0.00 0.05 0.00 81 1039.0
20260906024435 13 292 16.1 33.8 0.00 0.05 0.00 81 1075.2
20260906023935 13 202 9.7 33.8 0.00 0.05 0.00 81 1057.9
20260906023435 13 225 16.1 30.6 0.00 0.05 0.00 81 1068.4
20260906022935 13 247 9.7 30.6 0.00 0.05 0.00 81 1085.0
20260906022435 14 270 29.0 30.6 0.00 0.05 0.00 81 1047.0
20260906022134 14 270 30.6 30.6 0.00 0.05 0.00 81 1022.1
20260906021935 14 292 22.5 33.8 0.00 0.05 0.00 81 1074.9
20260906021435 14 225 12.9 32.2 0.00 0.05 0.00 81 1062.3
20260906020935 13 270 4.8 32.2 0.00 0.05 0.00 81 1053.8
20260906020435 13 270 24.1 30.6 0.00 0.05 0.00 81 1053.0
20260906015935 14 292 3.2 22.5 0.00 0.05 0.00 81 1043.7
20260906015435 14 270 22.5 30.6 0.00 0.05 0.00 81 1034.3
20260906014935 13 202 30.6 37.0 0.00 0.05 0.00 82 1061.9
20260906014834 14 292 19.3 32.2 0.00 0.05 0.00 82 1067.4
20260906014435 14 247 32.2 32.2 0.00 0.05 0.00 82 1063.9
20260906013935 14 270 20.9 22.5 0.00 0.05 0.00 82 1050.6
20260906013435 14 270 9.7 30.6 0.00 0.05 0.00 82 1063.1
20260906012935 14 270 30.6 30.6 0.00 0.05 0.00 82 1033.8
20260906012435 14 270 11.3 24.1 0.00 0.05 0.00 82 1043.8
20260906011935 14 292 17.7 27.4 0.00 0.05 0.00 82 1060.4
20260906011534 14 270 27.4 27.4 0.00 0.05 0.00 82 1053.7
20260906011435 14 247 17.7 22.5 0.00 0.05 0.00 82 1062.3
20260906010935 14 292 14.5 22.5 0.00 0.05 0.00 82 1031.9
20260906010435 14 247 19.3 19.3 0.00 0.05 0.00 82 1062.4
20260906005935 14 225 19.3 27.4 0.00 0.05 0.00 82 1028.8
20260906005436 14 225 16.1 24.1 0.00 0.05 0.00 82 1061.4
20260906004935 14 247 11.3 24.1 0.00 0.05 0.00 82 1061.1
20260906004435 14 247 19.3 24.1 0.00 0.05 0.00 82 1061.3
20260906004234 13 225 17.7 24.1 0.00 0.05 0.00 82 1052.6
20260906003935 13 270 17.7 24.1 0.00 0.05 0.00 83 1055.0
20260906003436 13 292 19.3 20.9 0.00 0.05 0.00 83 1043.8
20260906002935 13 225 12.9 25.7 0.00 0.05 0.00 83 1056.4
20260906002436 13 270 19.3 22.5 0.00 0.05 0.00 83 1062.2
20260906001935 13 270 4.8 17.7 0.00 0.05 0.00 83 1066.4
20260906001435 13 270 6.4 16.1 0.00 0.05 0.00 83 1074.0
20260906000934 13 270 6.4 22.5 0.00 0.05 0.00 82 1031.1
20260906000435 13 270 9.7 19.3 0.00 0.05 0.00 82 1046.9
20260905235935 13 292 16.1 27.4 0.00 0.05 0.00 82 1077.6
20260905235435 13 270 17.7 22.5 0.00 0.05 0.00 82 1032.2
20260905234936 13 202 8.0 25.7 0.00 0.05 0.00 82 1053.2
20260905234436 13 270 9.7 29.0 0.00 0.05 0.00 82 1057.5
20260905233936 13 202 9.7 25.7 0.00 0.05 0.00 82 1014.2
20260905233635 13 202 14.5 25.7 0.00 0.05 0.00 82 1034.0
20260905233435 13 247 9.7 20.9 0.00 0.05 0.00 82 1089.4
20260905232936 13 270 14.5 29.0 0.00 0.05 0.00 82 1031.2
20260905232436 13 270 11.3 25.7 0.00 0.05 0.00 82 1069.0
20260905231936 13 270 17.7 20.9 0.00 0.05 0.00 82 1062.6
20260905231436 13 247 12.9 22.5 0.00 0.05 0.00 82 1046.9
20260905230936 13 292 8.0 24.1 0.00 0.05 0.00 83 1061.1
20260905230436 13 270 12.9 27.4 0.00 0.05 0.00 83 1068.2
20260905230335 13 270 17.7 27.4 0.00 0.05 0.00 83 1059.2
20260905225936 13 247 8.0 22.5 0.00 0.05 0.00 83 1048.5
20260905225436 13 270 8.0 25.7 0.00 0.05 0.00 83 1067.4
20260905224936 13 225 6.4 20.9 0.00 0.05 0.00 83 1078.4
20260905224436 13 247 12.9 20.9 0.00 0.05 0.00 83 1063.8
20260905223936 13 292 6.4 29.0 0.00 0.05 0.00 83 1023.0
20260905223436 13 202 14.5 25.7 0.00 0.05 0.00 83 1053.3
20260905223035 13 247 6.4 29.0 0.00 0.05 0.00 83 1039.6
20260905222936 13 270 3.2 29.0 0.00 0.05 0.00 83 1060.3
20260905222436 13 270 19.3 32.2 0.00 0.05 0.00 83 1047.8
20260905221936 13 270 11.3 27.4 0.00 0.05 0.00 83 1071.8
20260905221436 13 270 9.7 20.9 0.00 0.05 0.00 83 1049.7
20260905220936 13 270 17.7 22.5 0.00 0.05 0.00 83 1038.2
20260905220436 13 225 16.1 30.6 0.00 0.05 0.00 83 1062.1
20260905215936 13 225 17.7 35.4 0.00 0.05 0.00 83 1061.8
20260905215735 13 270 35.4 37.0 0.00 0.05 0.00 83 1042.1
20260905215436 13 247 17.7 37.0 0.00 0.05 0.00 83 1074.9
20260905214936 13 292 20.9 24.1 0.00 0.05 0.00 82 1052.9
20260905214436 13 270 16.1 25.7 0.00 0.05 0.00 82 1052.3
20260905213936 13 202 12.9 35.4 0.00 0.05 0.00 82 1059.5
20260905213436 13 202 6.4 30.6 0.00 0.05 0.00 82 1039.4
20260905212936 13 270 11.3 29.0 0.00 0.05 0.00 82 1068.6
20260905212435 13 292 6.4 17.7 0.00 0.05 0.00 82 1059.5
20260905211936 13 292 8.0 17.7 0.00 0.05 0.00 82 1028.7
20260905211436 13 292 12.9 24.1 0.00 0.05 0.00 82 1036.6
20260905210936 13 225 14.5 24.1 0.00 0.05 0.00 82 1058.8
20260905210436 13 225 16.1 20.9 0.00 0.05 0.00 82 1025.6
20260905205936 13 202 19.3 22.5 0.00 0.05 0.00 82 1061.1
20260905205436 13 225 22.5 22.5 0.00 0.05 0.00 81 1058.6
20260905205135 13 270 12.9 24.1 0.00 0.05 0.00 81 1059.9
20260905204936 13 202 4.8 24.1 0.00 0.05 0.00 81 1022.7
20260905204436 13 292 4.8 17.7 0.00 0.05 0.00 81 1030.8
20260905203936 13 270 4.8 19.3 0.00 0.05 0.00 81 997.2
20260905203436 14 270 4.8 22.5 0.00 0.05 0.00 81 1056.4
20260905202936 14 270 12.9 27.4 0.00 0.05 0.00 81 1020.9
20260905202436 14 270 19.3 24.1 0.00 0.05 0.00 81 1092.6
20260905202117 14 225 6.4 25.7 0.00 0.05 0.00 81 1048.5
20260905201936 14 225 6.4 25.7 0.00 0.05 0.00 81 1048.5
20260905201835 14 270 25.7 25.7 0.00 0.05 0.00 81 1057.9
20260905201436 14 247 14.5 30.6 0.00 0.05 0.00 81 1064.2
20260905200936 14 270 12.9 22.5 0.00 0.05 0.00 81 1039.1
20260905200436 14 292 14.5 22.5 0.00 0.05 0.00 81 1061.1
20260905195936 14 270 9.7 20.9 0.00 0.10 0.00 80 1052.7
20260905195436 14 292 9.7 19.3 0.00 0.10 0.00 80 1072.1
20260905194936 15 270 16.1 25.7 0.00 0.10 0.00 80 1078.1
20260905194535 15 247 12.9 22.5 0.00 0.10 0.00 79 983.8
20260905194436 15 315 3.2 22.5 0.00 0.10 0.00 79 1011.4
20260905193936 15 270 22.5 22.5 0.00 0.10 0.00 79 1067.1
20260905193436 15 225 11.3 22.5 0.00 0.10 0.00 77 1054.5
20260905192936 15 225 12.9 20.9 0.00 0.10 0.00 77 1064.2
20260905192436 15 247 4.8 32.2 0.00 0.10 0.00 76 1030.4
20260905191936 15 247 17.7 33.8 0.00 0.10 0.00 73 1040.4
20260905191436 16 270 24.1 25.7 0.00 0.10 0.00 70 1037.4
20260905191235 16 247 4.8 25.7 0.00 0.10 0.00 70 1062.4
20260905190936 16 270 14.5 25.7 0.00 0.10 0.00 69 1054.8
20260905190436 16 225 14.5 24.1 0.00 0.10 0.00 68 1064.3
20260905185936 16 202 16.1 16.1 0.00 0.20 0.00 68 1070.6
20260905185436 16 202 8.0 12.9 0.00 0.20 0.00 67 1081.6
20260905184936 16 202 3.2 14.5 0.00 0.20 0.00 67 1059.5
20260905184436 16 270 6.4 17.7 0.00 0.20 0.00 67 1053.6
20260905183935 16 247 8.0 16.1 0.00 0.20 0.00 67 1058.2
20260905183436 16 202 8.0 16.1 0.00 0.20 0.00 66 1063.9
20260905182936 16 270 16.1 22.5 0.00 0.20 0.00 66 1007.5
20260905182436 16 225 12.9 17.7 0.00 0.20 0.00 66 1067.4
20260905181936 16 247 11.3 16.1 0.00 0.20 0.00 66 1042.9
20260905181436 16 270 8.0 14.5 0.00 0.20 0.00 66 1051.7
20260905180936 16 292 6.4 22.5 0.00 0.20 0.00 66 1075.9
20260905180635 16 292 12.9 22.5 0.00 0.20 0.00 65 1040.6
20260905180436 16 292 16.1 22.5 0.00 0.20 0.00 65 1054.8
20260905175936 16 270 9.7 30.6 0.00 0.20 0.00 65 1003.6
20260905175436 16 225 12.9 33.8 0.00 0.20 0.00 65 1059.5
20260905174936 17 292 11.3 20.9 0.00 0.20 0.00 65 1065.8
20260905174436 17 270 9.7 30.6 0.00 0.20 0.00 64 1065.8
20260905173936 17 292 22.5 25.7 0.00 0.20 0.00 64 1053.2
20260905173436 17 292 11.3 24.1 0.00 0.20 0.00 64 1062.3
20260905173335 17 270 14.5 24.1 0.00 0.20 0.00 64 1059.5
20260905172936 17 225 6.4 17.7 0.00 0.20 0.00 64 982.3
20260905172436 17 270 9.7 19.3 0.00 0.20 0.00 64 1024.0
20260905171936 17 247 11.3 30.6 0.00 0.20 0.00 63 1030.3
20260905171436 17 270 11.3 20.9 0.00 0.20 0.00 63 1064.2
20260905170936 17 270 12.9 19.3 0.00 0.20 0.00 63 1070.8
20260905170436 17 270 6.4 27.4 0.00 0.20 0.00 62 1051.6
20260905170035 17 270 4.8 27.4 0.00 0.20 0.00 62 1037.7
20260905165936 17 202 11.3 22.5 0.00 0.20 0.00 62 1078.4
20260905165436 17 270 20.9 33.8 0.00 0.20 0.00 61 1046.9
20260905164936 18 247 20.9 25.7 0.00 0.20 0.00 60 1062.0
20260905164436 18 247 16.1 32.2 0.00 0.20 0.00 60 1053.2
20260905163936 18 247 17.7 30.6 0.00 0.20 0.00 60 1047.6
20260905163436 18 247 9.7 30.6 0.00 0.20 0.00 60 1075.2
20260905162936 17 247 22.5 29.0 0.00 0.20 0.00 61 1062.7
20260905162735 17 270 22.5 29.0 0.00 0.20 0.00 61 1070.6
20260905162436 17 270 14.5 19.3 0.00 0.20 0.00 60 1061.1
20260905161937 17 247 9.7 30.6 0.00 0.20 0.00 60 1015.2
20260905161436 17 270 19.3 32.2 0.00 0.20 0.00 59 1038.2
20260905160936 17 247 11.3 22.5 0.00 0.20 0.00 59 1075.2
20260905160436 18 247 11.3 29.0 0.00 0.20 0.00 58 1064.2
20260905155936 18 225 12.9 32.2 0.00 0.20 0.00 57 1035.0
20260905155435 18 247 19.3 29.0 0.00 0.20 0.00 57 1048.5
20260905154936 18 180 24.1 29.0 0.00 0.20 0.00 56 1054.8
20260905154436 18 225 27.4 38.6 0.00 0.20 0.00 55 1067.4
20260905153937 19 247 20.9 33.8 0.00 0.20 0.00 54 1069.0
20260905153436 19 292 9.7 33.8 0.00 0.20 0.00 55 1074.9
20260905152936 19 270 16.1 40.2 0.00 0.20 0.00 55 1078.4
20260905152436 19 270 25.7 32.2 0.00 0.20 0.00 56 1054.8
20260905152135 19 202 29.0 30.6 0.00 0.20 0.00 57 1076.8
20260905151936 19 202 19.3 30.6 0.00 0.20 0.00 57 1043.4
20260905151436 18 337 11.3 24.1 0.00 0.20 0.00 59 1086.3
20260905150937 18 225 12.9 38.6 0.00 0.20 0.00 59 1070.6
20260905150436 18 270 9.7 33.8 0.00 0.20 0.00 60 996.4
20260905145436 19 270 19.3 45.1 0.00 0.20 0.00 60 1075.4
20260905144936 20 270 20.9 43.5 0.00 0.20 0.00 58 1046.9
20260905144835 20 292 11.3 43.5 0.00 0.20 0.00 58 1076.9
20260905144436 20 292 37.0 37.0 0.00 0.20 0.00 54 1053.2
20260905143937 20 202 20.9 33.8 0.00 0.20 0.00 50 1053.2
20260905143436 21 270 24.1 35.4 0.00 0.20 0.00 50 1033.5
20260905142936 21 270 30.6 33.8 0.00 0.20 0.00 50 1065.8
20260905142436 21 202 8.0 37.0 0.00 0.20 0.00 50 1058.0
20260905141536 21 270 33.8 37.0 0.00 0.20 0.00 48 1079.9
20260905140936 21 315 12.9 30.6 0.00 0.20 0.00 47 1062.6
20260905140436 21 247 16.1 30.6 0.00 0.20 0.00 48 1062.6
20260905135936 22 292 11.3 30.6 0.00 0.20 0.00 47 1064.2
20260905135436 22 225 14.5 38.6 0.00 0.20 0.00 46 1080.0
20260905134937 22 270 19.3 38.6 0.00 0.20 0.00 47 1056.4
20260905134437 22 247 35.4 46.7 0.00 0.20 0.00 47 1058.0
20260905134236 22 202 29.0 32.2 0.00 0.20 0.00 48 1059.5
20260905133936 22 270 27.4 41.8 0.00 0.20 0.00 48 1076.8
20260905133437 21 45 9.7 27.4 0.00 0.20 0.00 49 1018.5
20260905132937 21 225 6.4 29.0 0.00 0.20 0.00 49 1073.7
20260905132437 21 270 17.7 30.6 0.00 0.20 0.00 48 1068.9
20260905131937 22 270 30.6 38.6 0.00 0.20 0.00 47 1080.4
20260905131437 22 247 29.0 32.2 0.00 0.20 0.00 47 1011.4
20260905130936 22 315 20.9 33.8 0.00 0.20 0.00 46 1045.7
20260905130437 22 247 19.3 33.8 0.00 0.20 0.00 46 1030.3
20260905125937 22 270 30.6 33.8 0.00 0.20 0.00 46 1076.5
20260905125437 22 270 27.4 37.0 0.00 0.20 0.00 45 1046.9
20260905124937 22 270 19.3 37.0 0.00 0.20 0.00 45 1045.7
20260905124523 22 270 27.4 37.0 0.00 0.20 0.00 46 1070.5
20260905124518 22 270 37.0 48.3 0.00 0.20 0.00 45 1067.1
20260905124437 22 270 37.0 48.3 0.00 0.20 0.00 45 1067.1
20260905123937 22 270 30.6 43.5 0.00 0.20 0.00 46 1081.5
20260905123636 22 270 16.1 37.0 0.00 0.20 0.00 46 1067.4
20260905123437 22 270 27.4 37.0 0.00 0.20 0.00 46 1070.5
20260905122937 21 202 27.4 48.3 0.00 0.20 0.00 46 1059.2
20260905122437 21 202 27.4 37.0 0.00 0.20 0.00 46 1089.4
20260905121937 21 90 11.3 45.1 0.00 0.20 0.00 47 1076.5
20260905121437 21 270 37.0 37.0 0.00 0.20 0.00 47 1085.2
20260905120937 21 270 33.8 46.7 0.00 0.20 0.00 46 1061.1
20260905120437 21 225 33.8 33.8 0.00 0.20 0.00 46 1070.5
20260905120336 21 247 25.7 40.2 0.00 0.20 0.00 45 1036.7
20260905115937 22 270 40.2 43.5 0.00 0.20 0.00 45 985.4
20260905114937 22 247 20.9 35.4 0.00 0.20 0.00 46 1073.7
20260905114437 22 180 14.5 37.0 0.00 0.20 0.00 46 1022.5
20260905113937 22 247 25.7 57.9 0.00 0.20 0.00 46 1061.8
20260905113437 22 292 19.3 35.4 0.00 0.20 0.00 46 1067.4
20260905113036 22 180 9.7 38.6 0.00 0.20 0.00 47 1042.9
20260905112937 22 225 29.0 38.6 0.00 0.20 0.00 47 985.4
20260905111938 21 292 14.5 40.2 0.00 0.20 0.00 46 1035.8
20260905111437 22 247 29.0 35.4 0.00 0.20 0.00 46 1056.4
20260905110937 22 270 19.3 57.9 0.00 0.20 0.00 48 1051.6
20260905110437 22 270 25.7 40.2 0.00 0.20 0.00 48 1061.1
20260905105937 22 270 17.7 33.8 0.00 0.20 0.00 47 1030.3
20260905105736 22 247 12.9 40.2 0.00 0.20 0.00 48 1005.1
20260905105437 21 315 12.9 49.9 0.00 0.20 0.00 48 1034.7
20260905104937 21 180 24.1 49.9 0.00 0.20 0.00 51 1076.6
20260905104437 20 292 12.9 33.8 0.00 0.20 0.00 53 1054.8
20260905103937 20 90 17.7 29.0 0.00 0.20 0.00 54 1037.1
20260905103437 20 270 27.4 45.1 0.00 0.20 0.00 54 1059.5
20260905102937 20 270 32.2 43.5 0.00 0.20 0.00 52 1022.5
20260905102436 21 270 43.5 43.5 0.00 0.20 0.00 50 1061.1
20260905101437 22 270 41.8 49.9 0.00 0.20 0.00 47 1036.6
20260905100938 22 270 27.4 38.6 0.00 0.20 0.00 48 1059.5
20260905100437 22 247 32.2 37.0 0.00 0.20 0.00 50 1036.6
20260905095937 22 337 16.1 37.0 0.00 0.20 0.00 48 1051.6
20260905095437 22 270 30.6 51.5 0.00 0.20 0.00 50 1077.1
20260905095136 22 270 8.0 40.2 0.00 0.20 0.00 50 1053.2
20260905094937 22 270 16.1 46.7 0.00 0.20 0.00 50 1048.5
20260905094437 21 247 9.7 33.8 0.00 0.20 0.00 52 1068.9
20260905093937 21 270 14.5 40.2 0.00 0.20 0.00 51 1056.4
20260905093437 21 270 17.7 53.1 0.00 0.20 0.00 51 1075.2
20260905092937 21 270 38.6 70.8 0.00 0.20 0.00 51 1068.6
20260905092437 21 247 16.1 51.5 0.00 0.20 0.00 51 1080.0
20260905091937 22 270 12.9 40.2 0.00 0.20 0.00 52 1056.4
20260905091836 21 270 27.4 43.5 0.00 0.20 0.00 53 1043.8
20260905091437 21 225 14.5 43.5 0.00 0.20 0.00 54 1053.2
20260905090937 21 337 11.3 33.8 0.00 0.20 0.00 54 1056.4
20260905090437 20 292 9.7 33.8 0.00 0.20 0.00 56 1039.1
20260905085937 20 225 12.9 38.6 0.00 0.20 0.00 56 1081.5
20260905085437 20 270 22.5 46.7 0.00 0.20 0.00 55 1065.9
20260905084937 20 292 20.9 41.8 0.00 0.20 0.00 55 1073.7
20260905084536 21 225 19.3 54.7 0.00 0.20 0.00 54 1050.1
20260905084437 21 292 41.8 54.7 0.00 0.20 0.00 53 1046.9
20260905083937 22 202 20.9 33.8 0.00 0.20 0.00 55 1073.7
20260905083437 22 247 19.3 33.8 0.00 0.20 0.00 55 1086.3
20260905082937 21 247 27.4 38.6 0.00 0.20 0.00 56 1065.8
20260905082437 21 270 22.5 43.5 0.00 0.20 0.00 56 1078.4
20260905081937 21 202 25.7 43.5 0.00 0.20 0.00 55 1069.0
20260905081236 22 247 22.5 33.8 0.00 0.20 0.00 56 1046.9
20260905080937 22 157 27.4 37.0 0.00 0.20 0.00 56 1046.9
20260905080437 22 270 16.1 32.2 0.00 0.20 0.00 56 1048.0
20260905075937 21 247 27.4 35.4 0.00 0.20 0.00 59 1067.4
20260905075437 20 270 27.4 30.6 0.00 0.20 0.00 63 1070.5
20260905074937 20 270 27.4 37.0 0.00 0.20 0.00 64 1072.1
20260905074437 19 292 20.9 32.2 0.00 0.20 0.00 63 1046.6
20260905073936 20 202 14.5 38.6 0.00 0.20 0.00 63 1053.2
20260905073437 20 270 27.4 46.7 0.00 0.20 0.00 63 1044.2
20260905072937 19 247 9.7 37.0 0.00 0.20 0.00 64 1039.0
20260905072437 19 247 11.3 30.6 0.00 0.20 0.00 66 1085.0
20260905071937 18 270 38.6 38.6 0.00 0.20 0.00 66 1063.8
20260905071437 18 270 22.5 53.1 0.00 0.20 0.00 67 1040.6
20260905070937 18 270 53.1 53.1 0.00 0.20 0.00 66 1046.9
20260905070636 18 270 25.7 35.4 0.00 0.20 0.00 65 1050.1
20260905070437 18 270 19.3 30.6 0.00 0.20 0.00 65 1007.4
20260905065937 19 315 27.4 35.4 0.00 0.20 0.00 64 1029.3
20260905065438 19 247 16.1 33.8 0.00 0.20 0.00 63 1053.2
20260905064937 19 270 19.3 27.4 0.00 0.20 0.00 64 1066.1
20260905064437 20 247 12.9 24.1 0.00 0.20 0.00 64 1081.5
20260905063937 20 270 22.5 33.8 0.00 0.20 0.00 63 1044.3
20260905063437 20 270 33.8 35.4 0.00 0.20 0.00 63 1046.9
20260905063336 20 292 16.1 35.4 0.00 0.20 0.00 62 1050.1
20260905062937 20 225 20.9 38.6 0.00 0.20 0.00 62 1051.7
20260905062437 20 315 11.3 37.0 0.00 0.20 0.00 62 1078.4